This is the latest recevied weather packets stored in our database for station/object TA2NC-13. If no packets are shown the sender has not sent any weather packets the latest 10 day(s).
| Time | Temp. | Humidity | Pressure | Rain* | Wind** | Luminosity | Snow |
|---|---|---|---|---|---|---|---|
| 1777377601 | 20° C | 39% | 1016.5 hPa | 0 mm | - | - | - |
| 1777377000 | 19.44° C | 38% | 1016.5 hPa | 0 mm | - | - | - |
| 1777376401 | 20.56° C | 39% | 1016.5 hPa | 0 mm | - | - | - |
| 1777375801 | 20° C | 42% | 1016.5 hPa | 0 mm | - | - | - |
| 1777375201 | 19.44° C | 41% | 1016.5 hPa | 0 mm | - | - | - |
| 1777374601 | 20° C | 39% | 1016.5 hPa | 0 mm | - | - | - |
| 1777374001 | 20.56° C | 38% | 1016.5 hPa | 0 mm | - | - | - |
| 1777373400 | 20.56° C | 40% | 1016.5 hPa | 0 mm | - | - | - |
| 1777372801 | 19.44° C | 40% | 1016.5 hPa | 0 mm | - | - | - |
| 1777372201 | 20° C | 37% | 1016.5 hPa | 0 mm | - | - | - |
| 1777371600 | 18.89° C | 43% | 1016.5 hPa | 0 mm | - | - | - |
| 1777371000 | 19.44° C | 45% | 1016.5 hPa | 0 mm | - | - | - |
| 1777370400 | 20° C | 44% | 1016.5 hPa | 0 mm | - | - | - |
| 1777369801 | 19.44° C | 45% | 1016.5 hPa | 0 mm | - | - | - |
| 1777369200 | 18.89° C | 47% | 1016.5 hPa | 0 mm | - | - | - |
| 1777368600 | 18.89° C | 44% | 1016.5 hPa | 0 mm | - | - | - |
| 1777368001 | 18.89° C | 46% | 1016.5 hPa | 0 mm | - | - | - |
| 1777367400 | 18.89° C | 44% | 1016.5 hPa | 0 mm | - | - | - |
| 1777366800 | 18.33° C | 47% | 1016.5 hPa | 0 mm | - | - | - |
| 1777366200 | 18.33° C | 47% | 1016.5 hPa | 0 mm | - | - | - |
| 1777365600 | 18.89° C | 44% | 1016.5 hPa | 0 mm | - | - | - |
| 1777365000 | 18.89° C | 45% | 1016.5 hPa | 0 mm | - | - | - |
| 1777364400 | 18.89° C | 43% | 1016.5 hPa | 0 mm | - | - | - |
| 1777363800 | 19.44° C | 44% | 1016.5 hPa | 0 mm | - | - | - |
| 1777363200 | 19.44° C | 44% | 1016.5 hPa | 0 mm | - | - | - |
* Rain latest hour (hover to see other rain measurements)
** Current wind speed in m/s (hover to see current wind gust speed)